SCP
-0 -0 -0 -0 -0 -0 -0 -0 -0 0 -0 -0 -0 0 -0 0 0 0 0 0 0 0
-0 -0 -0 -0 -0 -0 -0 -0 0 0 0 0 -0 0 0 0 0 0 0 0 0 0
-0 -0 -0 -0 -0 -0 -0 -0 -0 -0 -0 -0 -0 0 0 0 0 0 0 0 0 0
-0 -0 -0 -0 -0 -0 -0 -0 -0 -0 -0 0 0 0 0 0 0 0 0 0 0 0
-0 -0 -0 -0 -0 -0 -0 -0 -0 -0 -0 -0 0 0 0 0 0 0 0 0 0 0
-0 -0 -0 -0 0 0 0 0 0 0 0 0 0 0 0 0 0 0 0 0 0 0
0 0 0 0 0 0 0 0 0 0 0 0 0 0 0 0 0 0 0 0 0 0
0 0 0 0 0 0 0 0 0 0 0 0 0 0 0 0 0 0 0 0 0 0
0 0 0 0 0 0 0 0 0 0 0 0 0 0 0 0 0 0 0 0 0 0
0 0 0 0 0 0 0 0 0 0 0 0 0 0 0 0 0 0 0 0 0 0
1 1 1 0 0 0 0 0 0 0 0 0 0 0 0 0 0 0 0 0 0 0
1 1 1 1 1 1 0 0 0 0 0 0 0 0 0 0 0 0 0 0 0 0
0 1 1 1 1 1 1 0 0 0 0 0 0 0 0 0 0 0 0 0 0 0
0 0 1 1 1 1 0 0 0 0 0 0 0 0 0 0 0 0 0 0 0 0
Wind_Speed_500mb
74 77 82 82 106 119 111 93 101 95 84 86 73 81 78 77 75 73 71 66 68 64
73 73 77 78 85 109 107 107 92 107 96 93 91 82 87 84 82 77 75 74 76 75
83 81 82 78 85 90 99 110 114 110 106 93 95 91 88 88 84 81 84 80 81 78
86 82 81 81 87 86 84 99 102 112 121 106 94 89 91 93 93 93 92 91 91 88
70 87 89 90 86 83 84 85 91 106 112 112 122 117 107 106 104 98 95 94 89 91
69 73 84 89 98 94 93 92 94 98 101 107 111 119 118 111 105 101 98 99 96 96
84 81 77 80 87 92 94 97 102 102 97 101 103 96 99 100 102 102 103 103 104 102
86 86 82 82 87 90 95 100 100 101 104 103 97 107 111 107 103 100 101 103 103 100
81 82 91 90 88 85 91 96 100 103 106 105 110 116 113 106 98 99 97 98 94 96
80 82 89 93 89 93 98 94 102 107 103 107 108 109 105 104 100 99 92 89 89 94
80 86 89 87 92 97 99 97 97 97 99 99 102 96 97 94 90 92 94 89 83 81
79 85 87 87 93 94 88 90 94 91 88 88 90 91 88 80 79 81 85 90 92 95
58 82 85 87 90 86 82 80 76 85 87 86 87 86 82 82 81 81 83 88 96 97
55 55 77 79 78 79 78 84 91 92 90 88 83 78 76 72 76 80 79 75 71 68
Wind_Direction_500mb
208 211 213 215 212 208 208 210 213 221 222 221 225 227 226 227 231 234 238 237 243 246
207 214 218 218 220 217 217 215 221 225 224 222 225 233 235 236 237 239 239 242 247 249
210 215 221 221 222 223 225 222 230 225 226 227 229 231 237 242 243 245 247 249 249 250
213 211 217 219 221 228 226 226 230 230 226 228 229 231 239 245 249 249 248 244 248 251
218 214 219 221 224 224 224 227 229 229 234 239 237 239 242 244 247 246 245 247 248 251
233 223 221 223 223 226 224 225 228 232 234 230 237 240 245 246 246 246 245 248 247 247
239 237 229 227 226 225 224 226 226 230 233 234 231 234 234 234 237 239 242 245 246 250
231 237 236 234 231 231 229 228 229 227 230 228 230 233 233 235 238 241 243 245 247 250
232 233 232 229 227 227 233 232 228 231 231 232 235 236 237 236 237 240 242 244 245 248
234 236 236 235 228 230 231 230 232 232 231 235 239 241 241 240 240 241 242 245 247 247
239 236 239 237 231 237 235 230 231 232 233 234 239 240 244 243 242 245 246 247 250 254
247 243 239 239 238 236 232 231 232 233 235 235 237 239 239 243 241 242 244 246 248 249
286 248 238 237 239 239 235 235 233 233 231 232 234 238 241 236 234 238 242 246 246 246
268 269 247 236 237 236 232 229 230 230 230 231 232 235 235 236 239 238 238 239 241 243
Wind_Speed_850mb
74 77 82 82 106 119 111 93 101 95 84 86 73 81 78 77 75 73 71 66 68 64
73 73 77 78 85 109 107 107 92 107 96 93 91 82 87 84 82 77 75 74 76 75
83 81 82 78 85 90 99 110 114 110 106 93 95 91 88 88 84 81 84 80 81 78
86 82 81 81 87 86 84 99 102 112 121 106 94 89 91 93 93 93 92 91 91 88
70 87 89 90 86 83 84 85 91 106 112 112 122 117 107 106 104 98 95 94 89 91
69 73 84 89 98 94 93 92 94 98 101 107 111 119 118 111 105 101 98 99 96 96
84 81 77 80 87 92 94 97 102 102 97 101 103 96 99 100 102 102 103 103 104 102
86 86 82 82 87 90 95 100 100 101 104 103 97 107 111 107 103 100 101 103 103 100
81 82 91 90 88 85 91 96 100 103 106 105 110 116 113 106 98 99 97 98 94 96
80 82 89 93 89 93 98 94 102 107 103 107 108 109 105 104 100 99 92 89 89 94
80 86 89 87 92 97 99 97 97 97 99 99 102 96 97 94 90 92 94 89 83 81
79 85 87 87 93 94 88 90 94 91 88 88 90 91 88 80 79 81 85 90 92 95
58 82 85 87 90 86 82 80 76 85 87 86 87 86 82 82 81 81 83 88 96 97
55 55 77 79 78 79 78 84 91 92 90 88 83 78 76 72 76 80 79 75 71 68
Wind_Direction_850mb
208 211 213 215 212 208 208 210 213 221 222 221 225 227 226 227 231 234 238 237 243 246
207 214 218 218 220 217 217 215 221 225 224 222 225 233 235 236 237 239 239 242 247 249
210 215 221 221 222 223 225 222 230 225 226 227 229 231 237 242 243 245 247 249 249 250
213 211 217 219 221 228 226 226 230 230 226 228 229 231 239 245 249 249 248 244 248 251
218 214 219 221 224 224 224 227 229 229 234 239 237 239 242 244 247 246 245 247 248 251
233 223 221 223 223 226 224 225 228 232 234 230 237 240 245 246 246 246 245 248 247 247
239 237 229 227 226 225 224 226 226 230 233 234 231 234 234 234 237 239 242 245 246 250
231 237 236 234 231 231 229 228 229 227 230 228 230 233 233 235 238 241 243 245 247 250
232 233 232 229 227 227 233 232 228 231 231 232 235 236 237 236 237 240 242 244 245 248
234 236 236 235 228 230 231 230 232 232 231 235 239 241 241 240 240 241 242 245 247 247
239 236 239 237 231 237 235 230 231 232 233 234 239 240 244 243 242 245 246 247 250 254
247 243 239 239 238 236 232 231 232 233 235 235 237 239 239 243 241 242 244 246 248 249
286 248 238 237 239 239 235 235 233 233 231 232 234 238 241 236 234 238 242 246 246 246
268 269 247 236 237 236 232 229 230 230 230 231 232 235 235 236 239 238 238 239 241 243